STARLINK-35883

operational
NORAD ID: 71090 Constellation: starlink
LEOCIRCULAR

About STARLINK-35883

Description loading...

Live Position

Loading 3D Globe...

Upcoming Passes

Altitude History

Altitude vs Time

uPlot chart will show altitude changes over time

Two-Line Element Set

1 71090C 25283Q 25341.77687500 -.00870640 00000+0 -12853-2 0 3410
2 71090 53.1575 99.5403 0000826 58.4886 351.6274 16.05118433 11
Epoch: Dec 7, 2025 • Age: 35 hours